{"data":{"norad_id":66111,"intl_designator":"2025-236AB","name":"STARLINK-35574","alt_names":[],"object_type":"PAYLOAD","status":"ACTIVE","operator":null,"country":"US","launch_date":"2025-10-19","launch_site_code":"AFWTR","launch_vehicle":null,"mission":null,"orbit_class":"UNKNOWN","rcs_meters":null,"size_class":null,"mass_kg":null,"dimensions":null,"purposes":["comms"],"wikipedia_slug":null,"has_3d_model":false,"image_url":null,"decayed_at":null,"tle_current":{"epoch":"2026-05-25T04:43:54.463296Z","epoch_age_seconds":52038,"freshness":"FRESH","line1":"1 66111U 25236AB  26145.19715814  .00014624  00000+0  50473-3 0  9995","line2":"2 66111  53.1568 108.8240 0001121  74.0990 286.0134 15.30211511 34597","mean_motion":15.30211511,"eccentricity":0.0001121,"inclination_deg":53.1568,"raan_deg":108.824,"arg_perigee_deg":74.099,"mean_anomaly_deg":286.0134,"bstar":0.00050473,"rev_number":3459,"period_min":94.10463779997,"perigee_km":474.4124429495,"apogee_km":475.9489567778,"semimajor_km":6853.3176998636,"source":"CELESTRAK","updated_at":"2026-05-25T13:38:21.059703Z"}}}